Location: Hradec Kralove
(50.2170°N, 15.8330°E)
Time: 06:51:44
(UTC+02:00)

TIGRISAT - Pass Details

Date: 10 August 2024
Orbit: 591 x 667 km, 97.7° (Epoch: 19 September)

Event Time Altitude Azimuth Distance (km) Brightness Sun altitude
Rises 03:31:52 0° 133° (SE) 2,926 ? -16.5°
Maximum altitude 03:37:58 26° 64° (ENE) 1,226 ? -15.9°
Drops below altitude 10° 03:41:33 10° 8° (N) 1,981 ? -15.6°
Sets 03:43:58 0° 356° (N) 2,879 ? -15.3°
